When you browse on this site, cookies collect data to enhance your experience and personalize the content and advertising you see.
Visit our Privacy Policy to learn more. By continuing to use the site, you agree to this use of cookies and data.
  • In United Kingdom
  • List of Countries
  • For 7 days
  • Water Temperature
  • Satellite Maps
  • Weather Map
  • Weather Widgets
  • user-avatar
    Login

    Hourly Weather Litherland

    Today, 17 July, Wednesday

    Time Temperature Precipitation Wind Pressure Humidity
    00:00 +16°C° 0 mm 1 mps 761 mmHg 79%
    01:00 +16°C° 0 mm 1 mps 761 mmHg 80%
    02:00 +16°C° 0 mm 1 mps 760 mmHg 80%
    03:00 +15°C° 0 mm 1 mps 760 mmHg 80%
    04:00 +16°C° 0 mm 2 mps 759 mmHg 79%
    05:00 +16°C° 0 mm 2 mps 759 mmHg 77%
    06:00 +17°C° 0 mm 2 mps 759 mmHg 75%
    07:00 +18°C° 0 mm 2 mps 759 mmHg 70%
    08:00 +19°C° 0 mm 3 mps 759 mmHg 66%
    09:00 +20°C° 0 mm 3 mps 759 mmHg 61%
    10:00 +20°C° 0 mm 3 mps 758 mmHg 61%
    11:00 +21°C° 0 mm 3 mps 758 mmHg 60%
    12:00 +21°C° 0 mm 3 mps 758 mmHg 60%
    13:00 +21°C° 0.1 mm 4 mps 757 mmHg 60%
    14:00 +21°C° 0.1 mm 4 mps 757 mmHg 61%
    15:00 +21°C° 0.1 mm 4 mps 757 mmHg 61%
    16:00 +19°C° 0.4 mm 4 mps 756 mmHg 68%
    17:00 +18°C° 0.4 mm 3 mps 756 mmHg 75%
    18:00 +17°C° 0.4 mm 3 mps 756 mmHg 82%
    19:00 +17°C° 0.1 mm 3 mps 756 mmHg 83%
    20:00 +17°C° 0.1 mm 3 mps 755 mmHg 84%
    21:00 +17°C° 0.1 mm 4 mps 755 mmHg 85%
    22:00 +17°C° 0 mm 3 mps 755 mmHg 86%
    23:00 +16°C° 0 mm 3 mps 755 mmHg 87%

    Tomorrow, 18 July, Thursday

    Time Temperature Precipitation Wind Pressure Humidity
    00:00 +16°C° 0 mm 3 mps 754 mmHg 88%
    01:00 +15°C° 0.1 mm 4 mps 754 mmHg 90%
    02:00 +15°C° 0.1 mm 4 mps 754 mmHg 91%
    03:00 +15°C° 0.1 mm 5 mps 754 mmHg 92%
    04:00 +15°C° 0.1 mm 5 mps 754 mmHg 89%
    05:00 +15°C° 0.1 mm 5 mps 754 mmHg 86%
    06:00 +14°C° 0.1 mm 5 mps 754 mmHg 83%
    07:00 +15°C° 0 mm 5 mps 754 mmHg 77%
    08:00 +16°C° 0 mm 5 mps 754 mmHg 71%
    09:00 +17°C° 0 mm 5 mps 755 mmHg 64%
    10:00 +19°C° 0 mm 5 mps 755 mmHg 60%
    11:00 +19°C° 0 mm 5 mps 755 mmHg 56%
    12:00 +20°C° 0 mm 6 mps 755 mmHg 52%
    13:00 +20°C° 0 mm 5 mps 755 mmHg 53%
    14:00 +20°C° 0 mm 5 mps 755 mmHg 54%
    15:00 +20°C° 0 mm 5 mps 755 mmHg 55%
    16:00 +20°C° 0 mm 5 mps 755 mmHg 57%
    17:00 +20°C° 0 mm 5 mps 755 mmHg 60%
    18:00 +20°C° 0 mm 5 mps 755 mmHg 62%
    19:00 +17°C° 0 mm 5 mps 756 mmHg 67%
    20:00 +17°C° 0 mm 4 mps 756 mmHg 71%
    21:00 +15°C° 0 mm 4 mps 756 mmHg 76%
    22:00 +15°C° 0 mm 4 mps 757 mmHg 78%
    23:00 +16°C° 0 mm 3 mps 757 mmHg 81%

    Day after tomorrow, 19 July, Friday

    Time Temperature Precipitation Wind Pressure Humidity
    00:00 +14°C° 0 mm 3 mps 757 mmHg 83%
    01:00 +14°C° 0 mm 3 mps 757 mmHg 84%
    02:00 +15°C° 0 mm 2 mps 757 mmHg 85%
    03:00 +14°C° 0 mm 2 mps 757 mmHg 86%
    04:00 +15°C° 0 mm 2 mps 756 mmHg 86%
    05:00 +15°C° 0 mm 2 mps 756 mmHg 85%
    06:00 +15°C° 0 mm 2 mps 756 mmHg 84%
    07:00 +16°C° 0.1 mm 3 mps 756 mmHg 83%
    08:00 +16°C° 0.1 mm 3 mps 756 mmHg 81%
    09:00 +17°C° 0.1 mm 4 mps 756 mmHg 79%
    10:00 +17°C° 0.5 mm 4 mps 755 mmHg 81%
    11:00 +16°C° 0.5 mm 5 mps 755 mmHg 82%
    12:00 +16°C° 0.5 mm 5 mps 755 mmHg 84%
    13:00 +16°C° 0.2 mm 5 mps 754 mmHg 82%
    14:00 +17°C° 0.2 mm 6 mps 754 mmHg 80%
    15:00 +19°C° 0.2 mm 6 mps 753 mmHg 79%
    16:00 +20°C° 0.1 mm 6 mps 753 mmHg 79%
    17:00 +20°C° 0.1 mm 5 mps 753 mmHg 79%
    18:00 +20°C° 0.1 mm 5 mps 752 mmHg 79%
    19:00 +20°C° 0.1 mm 5 mps 752 mmHg 81%
    20:00 +19°C° 0.1 mm 4 mps 752 mmHg 84%
    21:00 +18°C° 0.1 mm 4 mps 752 mmHg 86%
    22:00 +18°C° 0.4 mm 4 mps 752 mmHg 86%
    23:00 +18°C° 0.4 mm 4 mps 752 mmHg 86%

    20 July, Saturday

    Time Temperature Precipitation Wind Pressure Humidity
    00:00 +18°C° 0.4 mm 4 mps 751 mmHg 86%
    01:00 +17°C° 0.2 mm 4 mps 751 mmHg 88%
    02:00 +17°C° 0.2 mm 4 mps 751 mmHg 89%
    03:00 +16°C° 0.2 mm 3 mps 751 mmHg 90%
    04:00 +16°C° 0 mm 3 mps 751 mmHg 89%
    05:00 +17°C° 0 mm 4 mps 751 mmHg 88%
    06:00 +17°C° 0 mm 4 mps 751 mmHg 87%
    07:00 +18°C° 0 mm 4 mps 751 mmHg 83%
    08:00 +18°C° 0 mm 4 mps 751 mmHg 79%
    09:00 +19°C° 0 mm 4 mps 752 mmHg 74%
    10:00 +20°C° 0.1 mm 5 mps 752 mmHg 71%
    11:00 +20°C° 0.1 mm 6 mps 752 mmHg 67%
    12:00 +20°C° 0.1 mm 7 mps 753 mmHg 64%
    13:00 +20°C° 0 mm 7 mps 753 mmHg 63%
    14:00 +20°C° 0 mm 7 mps 753 mmHg 63%
    15:00 +20°C° 0 mm 7 mps 754 mmHg 63%
    16:00 +20°C° 0.1 mm 7 mps 754 mmHg 66%
    17:00 +19°C° 0.1 mm 6 mps 755 mmHg 68%
    18:00 +19°C° 0.1 mm 5 mps 756 mmHg 71%
    19:00 +17°C° 0 mm 5 mps 757 mmHg 75%
    20:00 +17°C° 0 mm 4 mps 757 mmHg 78%
    21:00 +15°C° 0 mm 4 mps 758 mmHg 81%
    22:00 +15°C° 0 mm 4 mps 759 mmHg 83%
    23:00 +14°C° 0 mm 3 mps 759 mmHg 84%

    21 July, Sunday

    Time Temperature Precipitation Wind Pressure Humidity
    00:00 +14°C° 0 mm 3 mps 759 mmHg 86%
    01:00 +14°C° 0 mm 3 mps 760 mmHg 86%
    02:00 +13°C° 0 mm 3 mps 760 mmHg 87%
    03:00 +14°C° 0 mm 2 mps 760 mmHg 88%
    04:00 +15°C° 0 mm 2 mps 761 mmHg 87%
    05:00 +15°C° 0 mm 2 mps 761 mmHg 85%
    06:00 +16°C° 0 mm 2 mps 762 mmHg 84%
    07:00 +17°C° 0 mm 2 mps 762 mmHg 77%
    08:00 +19°C° 0 mm 2 mps 762 mmHg 70%
    09:00 +20°C° 0 mm 2 mps 763 mmHg 63%
    10:00 +21°C° 0 mm 2 mps 763 mmHg 60%
    11:00 +23°C° 0 mm 2 mps 763 mmHg 58%
    12:00 +24°C° 0 mm 2 mps 763 mmHg 55%
    13:00 +24°C° 0 mm 2 mps 763 mmHg 55%
    14:00 +24°C° 0 mm 2 mps 762 mmHg 56%
    15:00 +24°C° 0 mm 3 mps 762 mmHg 57%
    16:00 +24°C° 0 mm 2 mps 762 mmHg 59%
    17:00 +24°C° 0 mm 2 mps 762 mmHg 61%
    18:00 +23°C° 0 mm 2 mps 762 mmHg 64%
    19:00 +21°C° 0 mm 2 mps 763 mmHg 68%
    20:00 +19°C° 0 mm 2 mps 763 mmHg 73%
    21:00 +18°C° 0 mm 3 mps 763 mmHg 77%
    22:00 +18°C° 0 mm 3 mps 763 mmHg 79%
    23:00 +17°C° 0 mm 3 mps 763 mmHg 80%

    22 July, Monday

    Time Temperature Precipitation Wind Pressure Humidity
    00:00 +17°C° 0 mm 4 mps 763 mmHg 82%
    01:00 +17°C° 0 mm 4 mps 762 mmHg 83%
    02:00 +15°C° 0 mm 4 mps 762 mmHg 85%
    03:00 +15°C° 0 mm 4 mps 762 mmHg 87%
    04:00 +15°C° 0 mm 4 mps 762 mmHg 86%
    05:00 +15°C° 0 mm 4 mps 762 mmHg 85%
    06:00 +17°C° 0 mm 4 mps 762 mmHg 84%
    07:00 +18°C° 0 mm 4 mps 762 mmHg 78%
    08:00 +20°C° 0 mm 4 mps 762 mmHg 72%
    09:00 +21°C° 0 mm 4 mps 761 mmHg 66%
    10:00 +22°C° 0 mm 4 mps 761 mmHg 62%
    11:00 +25°C° 0 mm 4 mps 761 mmHg 59%
    12:00 +26°C° 0 mm 4 mps 761 mmHg 55%
    13:00 +26°C° 0 mm 4 mps 761 mmHg 56%
    14:00 +26°C° 0 mm 4 mps 761 mmHg 57%
    15:00 +27°C° 0 mm 4 mps 761 mmHg 58%
    16:00 +26°C° 0.2 mm 3 mps 761 mmHg 60%
    17:00 +26°C° 0.2 mm 3 mps 761 mmHg 63%
    18:00 +25°C° 0.2 mm 3 mps 762 mmHg 65%
    19:00 +24°C° 0 mm 3 mps 762 mmHg 71%
    20:00 +21°C° 0 mm 2 mps 762 mmHg 76%
    21:00 +21°C° 0 mm 1 mps 762 mmHg 81%
    22:00 +21°C° 0 mm 1 mps 762 mmHg 82%
    23:00 +20°C° 0 mm 1 mps 762 mmHg 82%
    Show more